• In Netherlands
  • List of Countries
  • For 7 days
  • Water Temperature
  • Satellite Maps
  • Weather Map
  • Weather Widgets
  • user-avatar
    Login

    Hourly Weather Yeghegnadzor

    Today, 24 May, Thursday

    Time Temperature Precipitation Wind Pressure Humidity
    00:00 +15°C° 0 mm 2 mps 655 mmHg 65%
    01:00 +15°C° 0 mm 2 mps 655 mmHg 63%
    02:00 +14°C° 0 mm 2 mps 654 mmHg 61%
    03:00 +14°C° 0 mm 2 mps 654 mmHg 59%
    04:00 +15°C° 0 mm 2 mps 654 mmHg 58%
    05:00 +15°C° 0 mm 2 mps 655 mmHg 56%
    06:00 +16°C° 0 mm 2 mps 655 mmHg 55%
    07:00 +18°C° 0 mm 2 mps 655 mmHg 50%
    08:00 +19°C° 0 mm 2 mps 655 mmHg 45%
    09:00 +21°C° 0 mm 2 mps 656 mmHg 40%
    10:00 +23°C° 0 mm 2 mps 655 mmHg 39%
    11:00 +24°C° 0 mm 2 mps 655 mmHg 39%
    12:00 +25°C° 0 mm 3 mps 655 mmHg 38%
    13:00 +25°C° 0.3 mm 3 mps 655 mmHg 39%
    14:00 +24°C° 0.3 mm 3 mps 654 mmHg 41%
    15:00 +24°C° 0.3 mm 3 mps 654 mmHg 42%
    16:00 +24°C° 0.2 mm 2 mps 653 mmHg 45%
    17:00 +23°C° 0.2 mm 2 mps 653 mmHg 47%
    18:00 +23°C° 0.2 mm 2 mps 653 mmHg 49%
    19:00 +20°C° 0.1 mm 2 mps 653 mmHg 53%
    20:00 +19°C° 0.1 mm 2 mps 652 mmHg 58%
    21:00 +17°C° 0.1 mm 2 mps 652 mmHg 62%
    22:00 +16°C° 0 mm 2 mps 652 mmHg 62%
    23:00 +16°C° 0 mm 2 mps 652 mmHg 62%

    Tomorrow, 25 May, Friday

    Time Temperature Precipitation Wind Pressure Humidity
    00:00 +15°C° 0 mm 2 mps 651 mmHg 61%
    01:00 +15°C° 0 mm 2 mps 651 mmHg 61%
    02:00 +15°C° 0 mm 1 mps 651 mmHg 60%
    03:00 +15°C° 0 mm 1 mps 651 mmHg 60%
    04:00 +15°C° 0 mm 1 mps 651 mmHg 59%
    05:00 +16°C° 0 mm 1 mps 651 mmHg 59%
    06:00 +18°C° 0 mm 1 mps 652 mmHg 58%
    07:00 +19°C° 0 mm 1 mps 652 mmHg 54%
    08:00 +21°C° 0 mm 1 mps 652 mmHg 50%
    09:00 +22°C° 0 mm 1 mps 652 mmHg 47%
    10:00 +23°C° 0.3 mm 2 mps 652 mmHg 45%
    11:00 +24°C° 0.3 mm 2 mps 652 mmHg 44%
    12:00 +25°C° 0.3 mm 2 mps 652 mmHg 43%
    13:00 +25°C° 0.5 mm 2 mps 652 mmHg 42%
    14:00 +26°C° 0.5 mm 2 mps 652 mmHg 41%
    15:00 +26°C° 0.5 mm 3 mps 652 mmHg 40%
    16:00 +25°C° 0.2 mm 2 mps 651 mmHg 43%
    17:00 +25°C° 0.2 mm 2 mps 651 mmHg 46%
    18:00 +24°C° 0.2 mm 2 mps 651 mmHg 49%
    19:00 +21°C° 0 mm 2 mps 651 mmHg 53%
    20:00 +21°C° 0 mm 1 mps 651 mmHg 56%
    21:00 +19°C° 0 mm 1 mps 651 mmHg 60%
    22:00 +19°C° 0 mm 1 mps 651 mmHg 60%
    23:00 +18°C° 0 mm 1 mps 651 mmHg 60%

    Day after tomorrow, 26 May, Saturday

    Time Temperature Precipitation Wind Pressure Humidity
    00:00 +18°C° 0 mm 1 mps 651 mmHg 61%
    01:00 +16°C° 0 mm 1 mps 651 mmHg 61%
    02:00 +16°C° 0 mm 1 mps 651 mmHg 62%
    03:00 +16°C° 0 mm 1 mps 651 mmHg 63%
    04:00 +16°C° 0 mm 1 mps 651 mmHg 63%
    05:00 +18°C° 0 mm 1 mps 652 mmHg 62%
    06:00 +19°C° 0 mm 1 mps 652 mmHg 61%
    07:00 +21°C° 0 mm 1 mps 652 mmHg 56%
    08:00 +22°C° 0 mm 1 mps 653 mmHg 51%
    09:00 +24°C° 0 mm 1 mps 653 mmHg 45%
    10:00 +25°C° 0.1 mm 2 mps 653 mmHg 43%
    11:00 +26°C° 0.1 mm 2 mps 653 mmHg 41%
    12:00 +27°C° 0.1 mm 2 mps 653 mmHg 38%
    13:00 +27°C° 0.2 mm 2 mps 653 mmHg 37%
    14:00 +27°C° 0.2 mm 2 mps 653 mmHg 36%
    15:00 +28°C° 0.2 mm 2 mps 653 mmHg 34%
    16:00 +27°C° 0.1 mm 2 mps 653 mmHg 38%
    17:00 +26°C° 0.1 mm 2 mps 653 mmHg 41%
    18:00 +26°C° 0.1 mm 2 mps 653 mmHg 45%
    19:00 +24°C° 0 mm 1 mps 653 mmHg 50%
    20:00 +22°C° 0 mm 1 mps 653 mmHg 55%
    21:00 +20°C° 0 mm 1 mps 653 mmHg 60%
    22:00 +20°C° 0 mm 1 mps 653 mmHg 60%
    23:00 +19°C° 0 mm 1 mps 654 mmHg 59%

    27 May, Sunday

    Time Temperature Precipitation Wind Pressure Humidity
    00:00 +19°C° 0 mm 1 mps 654 mmHg 59%
    01:00 +19°C° 0 mm 1 mps 654 mmHg 59%
    02:00 +18°C° 0 mm 1 mps 654 mmHg 59%
    03:00 +18°C° 0 mm 1 mps 654 mmHg 60%
    04:00 +19°C° 0 mm 1 mps 654 mmHg 60%
    05:00 +19°C° 0 mm 1 mps 655 mmHg 59%
    06:00 +20°C° 0 mm 1 mps 655 mmHg 59%
    07:00 +21°C° 0 mm 1 mps 656 mmHg 55%
    08:00 +23°C° 0 mm 2 mps 657 mmHg 50%
    09:00 +24°C° 0 mm 2 mps 657 mmHg 46%
    10:00 +25°C° 0.3 mm 2 mps 657 mmHg 44%
    11:00 +26°C° 0.3 mm 2 mps 657 mmHg 42%
    12:00 +27°C° 0.3 mm 2 mps 657 mmHg 40%
    13:00 +27°C° 0.5 mm 2 mps 657 mmHg 39%
    14:00 +27°C° 0.5 mm 2 mps 657 mmHg 38%
    15:00 +27°C° 0.5 mm 2 mps 657 mmHg 37%
    16:00 +27°C° 0.2 mm 2 mps 657 mmHg 41%
    17:00 +26°C° 0.2 mm 2 mps 657 mmHg 44%
    18:00 +25°C° 0.2 mm 2 mps 657 mmHg 47%
    19:00 +24°C° 0.2 mm 2 mps 657 mmHg 53%
    20:00 +21°C° 0.2 mm 2 mps 658 mmHg 59%
    21:00 +19°C° 0.2 mm 2 mps 658 mmHg 65%
    22:00 +18°C° 0 mm 2 mps 658 mmHg 66%
    23:00 +18°C° 0 mm 2 mps 658 mmHg 67%

    28 May, Monday

    Time Temperature Precipitation Wind Pressure Humidity
    00:00 +17°C° 0 mm 2 mps 658 mmHg 68%
    01:00 +17°C° 0 mm 2 mps 657 mmHg 68%
    02:00 +17°C° 0 mm 2 mps 657 mmHg 68%
    03:00 +16°C° 0 mm 1 mps 657 mmHg 68%
    04:00 +18°C° 0 mm 1 mps 657 mmHg 65%
    05:00 +19°C° 0 mm 1 mps 658 mmHg 63%
    06:00 +20°C° 0 mm 1 mps 658 mmHg 61%
    07:00 +22°C° 0 mm 1 mps 658 mmHg 55%
    08:00 +23°C° 0 mm 1 mps 658 mmHg 48%
    09:00 +25°C° 0 mm 1 mps 658 mmHg 42%
    10:00 +26°C° 0 mm 2 mps 658 mmHg 40%
    11:00 +27°C° 0 mm 2 mps 658 mmHg 37%
    12:00 +28°C° 0 mm 2 mps 658 mmHg 35%
    13:00 +28°C° 0 mm 2 mps 657 mmHg 34%
    14:00 +29°C° 0 mm 2 mps 657 mmHg 33%
    15:00 +29°C° 0 mm 2 mps 656 mmHg 31%
    16:00 +28°C° 0 mm 2 mps 656 mmHg 35%
    17:00 +28°C° 0 mm 1 mps 656 mmHg 39%
    18:00 +27°C° 0 mm 1 mps 655 mmHg 43%
    19:00 +25°C° 0 mm 1 mps 655 mmHg 46%
    20:00 +23°C° 0 mm 1 mps 655 mmHg 49%
    21:00 +21°C° 0 mm 1 mps 655 mmHg 53%
    22:00 +21°C° 0 mm 1 mps 655 mmHg 53%
    23:00 +21°C° 0 mm 1 mps 654 mmHg 54%

    29 May, Tuesday

    Time Temperature Precipitation Wind Pressure Humidity
    00:00 +19°C° 0 mm 2 mps 654 mmHg 54%
    01:00 +19°C° 0 mm 2 mps 654 mmHg 53%
    02:00 +19°C° 0 mm 2 mps 654 mmHg 52%
    03:00 +18°C° 0 mm 2 mps 654 mmHg 51%
    04:00 +19°C° 0 mm 2 mps 654 mmHg 50%
    05:00 +20°C° 0 mm 2 mps 654 mmHg 49%
    06:00 +21°C° 0 mm 1 mps 654 mmHg 48%
    07:00 +23°C° 0 mm 1 mps 654 mmHg 45%
    08:00 +24°C° 0 mm 1 mps 655 mmHg 41%
    09:00 +26°C° 0 mm 1 mps 655 mmHg 38%
    10:00 +27°C° 0 mm 2 mps 655 mmHg 37%
    11:00 +28°C° 0 mm 2 mps 655 mmHg 36%
    12:00 +29°C° 0 mm 3 mps 655 mmHg 35%
    13:00 +29°C° 0.3 mm 3 mps 655 mmHg 37%
    14:00 +28°C° 0.3 mm 2 mps 654 mmHg 39%
    15:00 +28°C° 0.3 mm 2 mps 654 mmHg 41%
    16:00 +27°C° 0.6 mm 2 mps 654 mmHg 45%
    17:00 +27°C° 0.6 mm 2 mps 653 mmHg 49%
    18:00 +26°C° 0.6 mm 2 mps 653 mmHg 53%
    19:00 +24°C° 0.2 mm 2 mps 653 mmHg 60%
    20:00 +21°C° 0.2 mm 2 mps 653 mmHg 66%
    21:00 +19°C° 0.2 mm 3 mps 653 mmHg 72%
    22:00 +19°C° 0.2 mm 2 mps 653 mmHg 73%
    23:00 +18°C° 0.2 mm 2 mps 653 mmHg 74%
    Show more